Dades meteomassalio
Diari Summary for Maig 21, 2017 Units:  Metric    English   Both
« Previous Day
Next Day »
Diari Semanal Mensual Anual Personalitzat
  Maxima: Minima: Mijana:
Temperatura: -17.8 °C -12.9 °C -7.6 °C
Rosada: -17.8 °C -14.1 °C -11.7 °C
Humitat: Humidity % 41 % 64 %
Velocitat del vent: 0 km/h 0 km/h 7.4 km/h
Racha vent: 0 km/h - -
Vent:- - East
Pressio: 0 hPa 34384.8 hPa -
Pluja: 0 mm    
Historical Graphs
 
 
Tabular Data for Maig 21, 2017
Time Temperature Dew Point Pressure Wind Wind Speed Wind Gust Humidity Rainfall Rate (Hourly) solar Conditions
-17.8 °C -17.8 °C 0 hPa Calm     Humidity % 0 mm SolarRadiationWatts/m^2 W/m2 Conditions
00:00 -10.2 °C -13.4 °C 34635.4 hPa Calm     68 % 0 mm 0.0 W/m2 CLR
00:05 -10.2 °C -13.4 °C 34635.4 hPa Calm     68 % 0 mm 0.0 W/m2 CLR
00:10 -10.3 °C -13.4 °C 34635.4 hPa Calm     69 % 0 mm 0.0 W/m2 CLR
00:15 -10.3 °C -13.4 °C 34635.4 hPa Calm     69 % 0 mm 0.0 W/m2 CLR
00:20 -10.4 °C -13.5 °C 34635.4 hPa Calm     69 % 0 mm 0.0 W/m2 CLR
00:25 -10.5 °C -13.5 °C 34635.4 hPa Calm     70 % 0 mm 0.0 W/m2 CLR
00:30 -10.6 °C -13.5 °C 34635.4 hPa Calm     70 % 0 mm 0.0 W/m2 CLR
00:35 -10.5 °C -13.5 °C 34635.4 hPa Calm     70 % 0 mm 0.0 W/m2 CLR
00:40 -10.5 °C -13.5 °C 34645.6 hPa Calm     70 % 0 mm 0.0 W/m2 CLR
00:45 -10.7 °C -13.5 °C 34645.6 hPa Calm     71 % 0 mm 0.0 W/m2 CLR
00:50 -10.7 °C -13.6 °C 34645.6 hPa Calm     71 % 0 mm 0.0 W/m2 CLR
00:55 -10.8 °C -13.7 °C 34645.6 hPa Calm     71 % 0 mm 0.0 W/m2 CLR
01:00 -10.9 °C -13.6 °C 34645.6 hPa Calm     72 % 0 mm 0.0 W/m2 CLR
01:05 -10.9 °C -13.5 °C 34645.6 hPa Calm     73 % 0 mm 0.0 W/m2 CLR
01:10 -10.9 °C -13.6 °C 34645.6 hPa Calm     72 % 0 mm 0.0 W/m2 CLR
01:15 -10.9 °C -13.5 °C 34645.6 hPa Calm     73 % 0 mm 0.0 W/m2 CLR
01:20 -10.9 °C -13.5 °C 34645.6 hPa Calm     73 % 0 mm 0.0 W/m2 CLR
01:25 -10.9 °C -13.6 °C 34645.6 hPa Calm     73 % 0 mm 0.0 W/m2 CLR
01:30 -10.9 °C -13.6 °C 34645.6 hPa Calm     73 % 0 mm 0.0 W/m2 CLR
01:35 -11 °C -13.5 °C 34645.6 hPa Calm     74 % 0 mm 0.0 W/m2 CLR
01:40 -11.1 °C -13.6 °C 34645.6 hPa Calm     74 % 0 mm 0.0 W/m2 CLR
01:45 -11.1 °C -13.6 °C 34635.4 hPa Calm     74 % 0 mm 0.0 W/m2 CLR
01:50 -11.2 °C -13.5 °C 34635.4 hPa Calm     75 % 0 mm 0.0 W/m2 CLR
01:55 -11.2 °C -13.6 °C 34635.4 hPa Calm     75 % 0 mm 0.0 W/m2 CLR
02:00 -11.3 °C -13.7 °C 34635.4 hPa Calm     75 % 0 mm 0.0 W/m2 CLR
02:05 -11.3 °C -13.7 °C 34635.4 hPa Calm     75 % 0 mm 0.0 W/m2 CLR
02:10 -11.3 °C -13.6 °C 34635.4 hPa Calm     76 % 0 mm 0.0 W/m2 CLR
02:15 -11.3 °C -13.6 °C 34635.4 hPa Calm     76 % 0 mm 0.0 W/m2 CLR
02:20 -11.3 °C -13.5 °C 34635.4 hPa Calm     77 % 0 mm 0.0 W/m2 CLR
02:25 -11.3 °C -13.5 °C 34625.2 hPa Calm     77 % 0 mm 0.0 W/m2 CLR
02:30 -11.4 °C -13.6 °C 34625.2 hPa Calm     77 % 0 mm 0.0 W/m2 CLR
02:35 -11.3 °C -13.5 °C 34625.2 hPa Calm     77 % 0 mm 0.0 W/m2 CLR
02:40 -11.2 °C -13.4 °C 34625.2 hPa Calm     77 % 0 mm 0.0 W/m2 CLR
02:45 -11.2 °C -13.4 °C 34625.2 hPa Calm     77 % 0 mm 0.0 W/m2 CLR
02:50 -11.3 °C -13.4 °C 34625.2 hPa Calm     77 % 0 mm 0.0 W/m2 CLR
02:55 -11.4 °C -13.6 °C 34625.2 hPa Calm     77 % 0 mm 0.0 W/m2 CLR
03:00 -11.4 °C -13.5 °C 34635.4 hPa Calm     78 % 0 mm 0.0 W/m2 CLR
03:05 -11.3 °C -13.5 °C 34635.4 hPa Calm     77 % 0 mm 0.0 W/m2 CLR
03:10 -11.2 °C -13.5 °C 34625.2 hPa Calm     76 % 0 mm 0.0 W/m2 CLR
03:15 -11.2 °C -13.6 °C 34625.2 hPa Calm     75 % 0 mm 0.0 W/m2 CLR
03:20 -11.2 °C -13.6 °C 34635.4 hPa Calm     75 % 0 mm 0.0 W/m2 CLR
03:25 -11.4 °C -13.7 °C 34625.2 hPa Calm     76 % 0 mm 0.0 W/m2 CLR
03:30 -11.5 °C -13.7 °C 34625.2 hPa Calm     77 % 0 mm 0.0 W/m2 CLR
03:35 -11.6 °C -13.7 °C 34625.2 hPa Calm     78 % 0 mm 0.0 W/m2 CLR
03:40 -11.7 °C -13.7 °C 34625.2 hPa Calm     79 % 0 mm 0.0 W/m2 CLR
03:45 -11.8 °C -13.7 °C 34625.2 hPa Calm     79 % 0 mm 0.0 W/m2 CLR
03:50 -11.9 °C -13.7 °C 34635.4 hPa Calm     80 % 0 mm 0.0 W/m2 CLR
03:55 -11.9 °C -13.8 °C 34625.2 hPa Calm     80 % 0 mm 0.0 W/m2 CLR
04:00 -12 °C -13.7 °C 34625.2 hPa Calm     81 % 0 mm 0.0 W/m2 CLR
04:05 -12.1 °C -13.8 °C 34625.2 hPa Calm     81 % 0 mm 0.0 W/m2 CLR
04:11 -12.1 °C -13.8 °C 34625.2 hPa Calm     82 % 0 mm 0.0 W/m2 CLR
04:16 -12.2 °C -13.8 °C 34625.2 hPa Calm     82 % 0 mm 0.0 W/m2 CLR
04:21 -12.3 °C -13.9 °C 34625.2 hPa Calm     82 % 0 mm 0.0 W/m2 CLR
04:26 -12.3 °C -13.8 °C 34611.7 hPa Calm     83 % 0 mm 0.0 W/m2 CLR
04:31 -12.3 °C -13.8 °C 34611.7 hPa Calm     83 % 0 mm 0.0 W/m2 CLR
04:36 -12.3 °C -13.9 °C 34611.7 hPa Calm     83 % 0 mm 0.0 W/m2 CLR
04:41 -12.4 °C -13.9 °C 34611.7 hPa Calm     83 % 0 mm 0.0 W/m2 CLR
04:46 -12.4 °C -13.8 °C 34611.7 hPa Calm     84 % 0 mm 0.0 W/m2 CLR
04:51 -12.4 °C -13.8 °C 34601.5 hPa Calm     84 % 0 mm 0.0 W/m2 CLR
04:56 -12.4 °C -14 °C 34601.5 hPa Calm     83 % 0 mm 0.0 W/m2 CLR
05:01 -12.6 °C -13.9 °C 34601.5 hPa Calm     84 % 0 mm 0.0 W/m2 CLR
05:06 -12.6 °C -14 °C 34601.5 hPa Calm     84 % 0 mm 0.0 W/m2 CLR
05:11 -12.6 °C -14 °C 34601.5 hPa Calm     84 % 0 mm 0.0 W/m2 CLR
05:16 -12.6 °C -13.9 °C 34601.5 hPa Calm     85 % 0 mm 0.0 W/m2 CLR
05:21 -12.6 °C -13.9 °C 34601.5 hPa Calm     85 % 0 mm 0.0 W/m2 CLR
05:26 -12.7 °C -14 °C 34601.5 hPa Calm     85 % 0 mm 0.0 W/m2 CLR
05:31 -12.7 °C -14 °C 34601.5 hPa Calm     85 % 0 mm 0.0 W/m2 CLR
05:36 -12.7 °C -14 °C 34591.4 hPa Calm     85 % 0 mm 0.0 W/m2 CLR
05:41 -12.7 °C -14.1 °C 34591.4 hPa Calm     85 % 0 mm 0.0 W/m2 CLR
05:46 -12.7 °C -14.1 °C 34591.4 hPa Calm     85 % 0 mm 0.0 W/m2 CLR
05:51 -12.7 °C -14.1 °C 34601.5 hPa Calm     85 % 0 mm 0.0 W/m2 CLR
05:56 -12.7 °C -14 °C 34591.4 hPa Calm     86 % 0 mm 0.0 W/m2 CLR
06:01 -12.7 °C -14 °C 34591.4 hPa Calm     86 % 0 mm 0.0 W/m2 CLR
06:06 -12.8 °C -14 °C 34591.4 hPa Calm     86 % 0 mm 0.0 W/m2 CLR
06:11 -12.8 °C -14.1 °C 34591.4 hPa Calm     86 % 0 mm 0.0 W/m2 CLR
06:16 -12.8 °C -14.1 °C 34591.4 hPa Calm     86 % 0 mm 0.0 W/m2 CLR
06:21 -12.8 °C -14.1 °C 34591.4 hPa Calm     86 % 0 mm 0.0 W/m2 CLR
06:22 -12.8 °C -14.1 °C 34591.4 hPa Calm     86 % 0 mm 0.0 W/m2 CLR
06:27 -12.9 °C -14 °C 34591.4 hPa Calm     87 % 0 mm 0.0 W/m2 OVC
06:32 -12.8 °C -14 °C 34601.5 hPa Calm     87 % 0 mm 0.0 W/m2 OVC
06:37 -12.8 °C -14 °C 34601.5 hPa Calm     87 % 0 mm 0.0 W/m2 OVC
06:42 -12.8 °C -13.9 °C 34601.5 hPa Calm     87 % 0 mm 5.0 W/m2 OVC
06:47 -12.7 °C -13.8 °C 34601.5 hPa Calm     87 % 0 mm 11.0 W/m2 BKN
06:53 -12.7 °C -13.9 °C 34601.5 hPa Calm     86 % 0 mm 12.0 W/m2 BKN
06:58 -12.7 °C -13.9 °C 34601.5 hPa Calm     86 % 0 mm 14.0 W/m2 BKN
07:03 -12.7 °C -13.9 °C 34601.5 hPa Calm     86 % 0 mm 19.0 W/m2 BKN
07:08 -12.6 °C -13.8 °C 34601.5 hPa Calm     86 % 0 mm 28.0 W/m2 BKN
07:13 -12.6 °C -13.8 °C 34601.5 hPa Calm     86 % 0 mm 39.0 W/m2 BKN
07:18 -12.6 °C -13.8 °C 34601.5 hPa Calm     86 % 0 mm 49.0 W/m2 SCT
07:23 -12.6 °C -13.8 °C 34601.5 hPa Calm     86 % 0 mm 54.0 W/m2 SCT
07:28 -12.6 °C -13.8 °C 34601.5 hPa Calm     86 % 0 mm 62.0 W/m2 SCT
07:33 -12.4 °C -13.7 °C 34601.5 hPa Calm     86 % 0 mm 70.0 W/m2 FEW
07:38 -12.4 °C -13.7 °C 34601.5 hPa Calm     86 % 0 mm 83.0 W/m2 FEW
07:43 -12.3 °C -13.6 °C 34601.5 hPa Calm     86 % 0 mm 104.0 W/m2 FEW
07:48 -12.2 °C -13.4 °C 34601.5 hPa Calm     86 % 0 mm 121.0 W/m2 CLR
07:53 -12.1 °C -13.4 °C 34601.5 hPa Calm     86 % 0 mm 137.0 W/m2 CLR
07:58 -12 °C -13.3 °C 34601.5 hPa Calm     85 % 0 mm 148.0 W/m2 CLR
08:03 -11.8 °C -13.2 °C 34601.5 hPa Calm     85 % 0 mm 162.0 W/m2 CLR
08:08 -11.7 °C -13.2 °C 34601.5 hPa Calm     84 % 0 mm 151.0 W/m2 CLR
08:13 -11.6 °C -13 °C 34601.5 hPa Calm     84 % 0 mm 207.0 W/m2 CLR
08:18 -11.4 °C -12.9 °C 34601.5 hPa Calm     83 % 0 mm 206.0 W/m2 CLR
08:23 -11.2 °C -12.9 °C 34601.5 hPa Calm     82 % 0 mm 258.0 W/m2 CLR
08:28 -11 °C -12.7 °C 34591.4 hPa Calm     82 % 0 mm 239.0 W/m2 CLR
08:33 -10.8 °C -12.6 °C 34601.5 hPa Calm     81 % 0 mm 236.0 W/m2 CLR
08:38 -10.6 °C -12.6 °C 34591.4 hPa Calm     79 % 0 mm 216.0 W/m2 CLR
08:43 -10.4 °C -12.5 °C 34591.4 hPa Calm     78 % 0 mm 223.0 W/m2 CLR
08:48 -10.2 °C -12.3 °C 34591.4 hPa Calm     78 % 0 mm 223.0 W/m2 CLR
08:53 -10 °C -12.2 °C 34591.4 hPa Calm     77 % 0 mm 262.0 W/m2 CLR
08:58 -9.8 °C -12.1 °C 34591.4 hPa Calm     76 % 0 mm 260.0 W/m2 CLR
09:03 -9.6 °C -12.1 °C 34591.4 hPa Calm     75 % 0 mm 248.0 W/m2 CLR
09:08 -9.4 °C -11.9 °C 34591.4 hPa Calm     74 % 0 mm 248.0 W/m2 CLR
09:13 -9.3 °C -12 °C 34577.8 hPa Calm     73 % 0 mm 285.0 W/m2 CLR
09:18 -9.3 °C -11.8 °C 34577.8 hPa Calm     74 % 0 mm 297.0 W/m2 CLR
09:23 -9.1 °C -11.7 °C 34577.8 hPa Calm     74 % 0 mm 339.0 W/m2 CLR
09:28 -8.9 °C -11.6 °C 34577.8 hPa Calm     73 % 0 mm 353.0 W/m2 CLR
09:33 -8.7 °C -11.4 °C 34577.8 hPa Calm     72 % 0 mm 343.0 W/m2 CLR
09:38 -8.4 °C -11.2 °C 34577.8 hPa Calm     72 % 0 mm 420.0 W/m2 CLR
09:43 -8.2 °C -11.2 °C 34577.8 hPa Calm     71 % 0 mm 411.0 W/m2 CLR
09:48 -7.9 °C -11.1 °C 34577.8 hPa Calm     70 % 0 mm 388.0 W/m2 CLR
09:53 -7.7 °C -10.9 °C 34577.8 hPa Calm     69 % 0 mm 364.0 W/m2 CLR
09:58 -7.5 °C -10.8 °C 34577.8 hPa Calm     68 % 0 mm 376.0 W/m2 CLR
10:03 -7.4 °C -10.7 °C 34577.8 hPa Calm     68 % 0 mm 417.0 W/m2 CLR
10:08 -7.3 °C -10.7 °C 34577.8 hPa Calm     67 % 0 mm 394.0 W/m2 CLR
10:13 -7.1 °C -10.7 °C 34577.8 hPa Calm     66 % 0 mm 383.0 W/m2 CLR
10:18 -7.1 °C -10.7 °C 34577.8 hPa Calm     66 % 0 mm 448.0 W/m2 CLR
10:23 -6.8 °C -10.5 °C 34577.8 hPa Calm     66 % 0 mm 534.0 W/m2 CLR
10:28 -6.7 °C -10.6 °C 34577.8 hPa Calm     64 % 0 mm 520.0 W/m2 CLR
10:33 -6.6 °C -10.6 °C 34577.8 hPa Calm     63 % 0 mm 512.0 W/m2 CLR
10:38 -6.4 °C -10.4 °C 34577.8 hPa Calm     64 % 0 mm 587.0 W/m2 CLR
10:43 -6.3 °C -10.5 °C 34577.8 hPa Calm     62 % 0 mm 589.0 W/m2 CLR
10:48 -6.2 °C -10.4 °C 34577.8 hPa Calm     62 % 0 mm 564.0 W/m2 CLR
10:53 -6.1 °C -10.4 °C 34577.8 hPa Calm     61 % 0 mm 582.0 W/m2 CLR
10:58 -5.9 °C -10.3 °C 34577.8 hPa NE 5.1 km/h   61 % 0 mm 679.0 W/m2 CLR
11:03 -5.8 °C -10.3 °C 34577.8 hPa NE 15 km/h 15 km/h 60 % 0 mm 642.0 W/m2 CLR
11:08 -5.9 °C -10.5 °C 34577.8 hPa East 15 km/h 15 km/h 59 % 0 mm 617.0 W/m2 CLR
11:13 -5.9 °C -10.4 °C 34577.8 hPa NE 6 km/h 6 km/h 60 % 0 mm 659.0 W/m2 CLR
11:18 -5.7 °C -10.5 °C 34567.7 hPa ENE 15 km/h 15 km/h 58 % 0 mm 591.0 W/m2 CLR
11:23 -5.8 °C -10.4 °C 34567.7 hPa ENE 12.9 km/h 12.9 km/h 59 % 0 mm 724.0 W/m2 CLR
11:28 -5.7 °C -10.4 °C 34567.7 hPa NE 20.9 km/h 20.9 km/h 59 % 0 mm 691.0 W/m2 CLR
11:33 -5.7 °C -10.4 °C 34567.7 hPa NE 17.9 km/h 17.9 km/h 58 % 0 mm 643.0 W/m2 CLR
11:38 -5.6 °C -10.6 °C 34567.7 hPa ENE 15.6 km/h 15.6 km/h 57 % 0 mm 615.0 W/m2 CLR
11:43 -5.5 °C -10.8 °C 34567.7 hPa ENE 17.9 km/h 17.9 km/h 55 % 0 mm 649.0 W/m2 CLR
11:48 -5.4 °C -11.2 °C 34567.7 hPa ENE 6 km/h   52 % 0 mm 640.0 W/m2 CLR
11:53 -5.2 °C -11.3 °C 34567.7 hPa NNE 12.9 km/h 12.9 km/h 50 % 0 mm 721.0 W/m2 CLR
11:58 -5.1 °C -10.7 °C 34567.7 hPa ENE 17.9 km/h 17.9 km/h 53 % 0 mm 708.0 W/m2 CLR
12:03 -5.1 °C -10.3 °C 34554.1 hPa North 15.6 km/h 15.6 km/h 55 % 0 mm 761.0 W/m2 CLR
12:05 -5.1 °C -10.3 °C 34554.1 hPa North 23.3 km/h 23.3 km/h 55 % 0 mm 773.0 W/m2 CLR
12:10 -4.9 °C -10.4 °C 34554.1 hPa NE 23.3 km/h 23.3 km/h 54 % 0 mm 870.0 W/m2 CLR
12:15 -4.9 °C -10.7 °C 34544 hPa ENE 23.8 km/h 23.8 km/h 52 % 0 mm 626.0 W/m2 CLR
12:20 -4.9 °C -11 °C 34544 hPa ENE 17.9 km/h 17.9 km/h 50 % 0 mm 482.0 W/m2 CLR
12:26 -5 °C -11.1 °C 34544 hPa NE 15.6 km/h 15.6 km/h 50 % 0 mm 478.0 W/m2 CLR
12:31 -5 °C -10.8 °C 34544 hPa NNE 20.9 km/h 20.9 km/h 52 % 0 mm 483.0 W/m2 CLR
12:36 -5.1 °C -10.8 °C 34544 hPa NNE 11.9 km/h 11.9 km/h 52 % 0 mm 443.0 W/m2 CLR
12:41 -5 °C -10.8 °C 34533.8 hPa NE 20.9 km/h 20.9 km/h 52 % 0 mm 563.0 W/m2 CLR
12:46 -4.9 °C -10.8 °C 34533.8 hPa NNE 15 km/h 15 km/h 51 % 0 mm 691.0 W/m2 CLR
12:51 -4.7 °C -10.8 °C 34533.8 hPa NE 23.8 km/h 23.8 km/h 50 % 0 mm 780.0 W/m2 CLR
12:56 -4.5 °C -10.8 °C 34520.3 hPa NNE 26.9 km/h 26.9 km/h 49 % 0 mm 986.0 W/m2 CLR
13:01 -4.4 °C -10.9 °C 34520.3 hPa NNE 23.8 km/h 23.8 km/h 48 % 0 mm 963.0 W/m2 CLR
13:06 -4.3 °C -10.8 °C 34520.3 hPa NE 11.9 km/h 13.2 km/h 48 % 0 mm 954.0 W/m2 CLR
13:11 -4.1 °C -10.8 °C 34510.1 hPa ENE 29.8 km/h 29.8 km/h 47 % 0 mm 956.0 W/m2 CLR
13:16 -4 °C -10.9 °C 34510.1 hPa NE 15 km/h 15 km/h 46 % 0 mm 937.0 W/m2 CLR
13:21 -3.8 °C -10.8 °C 34510.1 hPa ENE 15 km/h 15 km/h 46 % 0 mm 967.0 W/m2 CLR
13:26 -3.8 °C -10.7 °C 34510.1 hPa ENE 18.2 km/h 18.2 km/h 46 % 0 mm 823.0 W/m2 CLR
13:31 -3.8 °C -11.2 °C 34496.6 hPa NE 12.9 km/h 12.9 km/h 44 % 0 mm 942.0 W/m2 CLR
13:36 -3.8 °C -10.9 °C 34496.6 hPa East 20.9 km/h 20.9 km/h 45 % 0 mm 954.0 W/m2 CLR
13:41 -3.8 °C -10.9 °C 34496.6 hPa ENE 26.9 km/h 26.9 km/h 45 % 0 mm 958.0 W/m2 CLR
13:46 -3.6 °C -10.7 °C 34496.6 hPa NE 25.9 km/h 25.9 km/h 45 % 0 mm 949.0 W/m2 CLR
13:51 -3.4 °C -10.7 °C 34486.4 hPa East 26.9 km/h 26.9 km/h 44 % 0 mm 956.0 W/m2 CLR
13:56 -3.6 °C -10.9 °C 34486.4 hPa ENE 20.9 km/h 20.9 km/h 44 % 0 mm 953.0 W/m2 CLR
14:01 -3.6 °C -10.7 °C 34486.4 hPa NE 15.6 km/h 15.6 km/h 45 % 0 mm 865.0 W/m2 CLR
14:06 -3.4 °C -10.9 °C 34486.4 hPa ESE 26.9 km/h 26.9 km/h 43 % 0 mm 809.0 W/m2 CLR
14:11 -3.4 °C -10.7 °C 34486.4 hPa ENE 18.2 km/h 18.2 km/h 44 % 0 mm 838.0 W/m2 CLR
14:16 -3.4 °C -10.9 °C 34486.4 hPa SE 12.9 km/h 12.9 km/h 43 % 0 mm 788.0 W/m2 CLR
14:21 -3.4 °C -10.9 °C 34486.4 hPa Calm     43 % 0 mm 796.0 W/m2 CLR
14:26 -3.3 °C -11 °C 34476.3 hPa SE 23.8 km/h 23.8 km/h 42 % 0 mm 904.0 W/m2 CLR
14:31 -3.3 °C -10.9 °C 34476.3 hPa ESE 3.1 km/h 3.1 km/h 43 % 0 mm 896.0 W/m2 CLR
14:36 -3.1 °C -10.6 °C 34476.3 hPa ENE 11.9 km/h 11.9 km/h 43 % 0 mm 933.0 W/m2 CLR
14:41 -2.7 °C -10.5 °C 34476.3 hPa East 26.9 km/h 26.9 km/h 42 % 0 mm 949.0 W/m2 CLR
14:46 -2.6 °C -10.4 °C 34462.7 hPa NE 23.8 km/h 23.8 km/h 42 % 0 mm 928.0 W/m2 CLR
14:51 -2.6 °C -10.4 °C 34462.7 hPa ENE 11.9 km/h 11.9 km/h 42 % 0 mm 930.0 W/m2 CLR
14:56 -2.7 °C -10.7 °C 34462.7 hPa East 23.8 km/h 23.8 km/h 41 % 0 mm 773.0 W/m2 CLR
15:01 -2.6 °C -10.2 °C 34462.7 hPa ENE 10.3 km/h 10.3 km/h 43 % 0 mm 784.0 W/m2 CLR
15:06 -2.6 °C -10.2 °C 34452.6 hPa ENE 17.9 km/h 17.9 km/h 43 % 0 mm 782.0 W/m2 CLR
15:11 -2.5 °C -10.1 °C 34452.6 hPa ESE 15 km/h 15 km/h 43 % 0 mm 598.0 W/m2 CLR
15:16 -2.6 °C -10.4 °C 34462.7 hPa Calm     42 % 0 mm 499.0 W/m2 CLR
15:21 -2.8 °C -10.4 °C 34452.6 hPa Calm     43 % 0 mm 427.0 W/m2 CLR
15:26 -2.9 °C -10.3 °C 34452.6 hPa ENE 15 km/h 15 km/h 44 % 0 mm 431.0 W/m2 CLR
15:31 -3 °C -10.2 °C 34452.6 hPa ENE 17.9 km/h 17.9 km/h 45 % 0 mm 390.0 W/m2 CLR
15:36 -3.1 °C -10.1 °C 34442.4 hPa ENE 15 km/h 15 km/h 46 % 0 mm 403.0 W/m2 CLR
15:41 -3.2 °C -10.2 °C 34452.6 hPa ENE 26.9 km/h 26.9 km/h 46 % 0 mm 431.0 W/m2 CLR
15:46 -3.2 °C -9.9 °C 34452.6 hPa ESE 23.8 km/h 23.8 km/h 47 % 0 mm 487.0 W/m2 CLR
15:51 -3.2 °C -9.9 °C 34442.4 hPa ESE 23.8 km/h 23.8 km/h 47 % 0 mm 601.0 W/m2 CLR
15:56 -3.1 °C -10.1 °C 34442.4 hPa ESE 23.8 km/h 23.8 km/h 46 % 0 mm 475.0 W/m2 CLR
16:01 -3.2 °C -9.9 °C 34442.4 hPa East 26.9 km/h 26.9 km/h 47 % 0 mm 482.0 W/m2 CLR
16:06 -3.2 °C -10 °C 34442.4 hPa ESE 20.9 km/h 20.9 km/h 47 % 0 mm 591.0 W/m2 CLR
16:11 -3.2 °C -9.8 °C 34442.4 hPa ESE 15 km/h 15 km/h 48 % 0 mm 492.0 W/m2 CLR
16:21 -3.3 °C -9.9 °C 34442.4 hPa East 20.9 km/h 20.9 km/h 48 % 0 mm 454.0 W/m2 CLR
16:26 -3.3 °C -10.2 °C 34428.8 hPa East 23.3 km/h 23.3 km/h 46 % 0 mm 459.0 W/m2 CLR
16:31 -3.4 °C -9.9 °C 34428.8 hPa East 29.8 km/h 29.8 km/h 48 % 0 mm 503.0 W/m2 CLR
16:36 -3.4 °C -9.8 °C 34428.8 hPa ESE 23.8 km/h 23.8 km/h 49 % 0 mm 504.0 W/m2 CLR
16:41 -3.5 °C -10.3 °C 34428.8 hPa SE 29.8 km/h 29.8 km/h 47 % 0 mm 487.0 W/m2 CLR
16:46 -3.6 °C -9.9 °C 34428.8 hPa ESE 29.8 km/h 29.8 km/h 49 % 0 mm 478.0 W/m2 CLR
16:51 -3.6 °C -9.9 °C 34428.8 hPa East 15 km/h 15 km/h 49 % 0 mm 454.0 W/m2 CLR
16:56 -3.6 °C -9.9 °C 34428.8 hPa ESE 26.9 km/h 26.9 km/h 49 % 0 mm 424.0 W/m2 CLR
17:01 -3.5 °C -9.8 °C 34428.8 hPa SE 17.9 km/h 17.9 km/h 50 % 0 mm 431.0 W/m2 CLR
17:06 -3.6 °C -9.9 °C 34428.8 hPa SE 29.8 km/h 29.8 km/h 49 % 0 mm 387.0 W/m2 CLR
17:11 -3.6 °C -9.8 °C 34428.8 hPa SE 15 km/h 15 km/h 50 % 0 mm 353.0 W/m2 CLR
17:16 -3.5 °C -9.7 °C 34428.8 hPa ESE 15 km/h 15 km/h 50 % 0 mm 332.0 W/m2 CLR
17:21 -3.4 °C -9.8 °C 34418.7 hPa ESE 23.8 km/h 23.8 km/h 49 % 0 mm 294.0 W/m2 CLR
17:26 -3.5 °C -9.8 °C 34418.7 hPa East 20.9 km/h 20.9 km/h 50 % 0 mm 274.0 W/m2 CLR
17:31 -3.6 °C -9.7 °C 34418.7 hPa ESE 20.9 km/h 20.9 km/h 51 % 0 mm 251.0 W/m2 CLR
17:36 -3.7 °C -9.7 °C 34418.7 hPa East 26.9 km/h 26.9 km/h 51 % 0 mm 230.0 W/m2 CLR
17:41 -3.6 °C -9.6 °C 34418.7 hPa East 10.3 km/h 10.3 km/h 51 % 0 mm 200.0 W/m2 CLR
17:42 -3.6 °C -9.6 °C 34418.7 hPa East 12.9 km/h 12.9 km/h 51 % 0 mm 195.0 W/m2 CLR
17:47 -3.7 °C -9.7 °C 34418.7 hPa ESE 23.8 km/h 23.8 km/h 51 % 0 mm 176.0 W/m2 CLR
17:52 -3.7 °C -9.8 °C 34418.7 hPa ESE 20.9 km/h 20.9 km/h 51 % 0 mm 181.0 W/m2 CLR
17:57 -3.8 °C -9.8 °C 34428.8 hPa ESE 17.9 km/h 17.9 km/h 51 % 0 mm 186.0 W/m2 CLR
18:02 -3.8 °C -9.8 °C 34428.8 hPa East 26.9 km/h 26.9 km/h 51 % 0 mm 186.0 W/m2 CLR
18:07 -3.9 °C -9.8 °C 34428.8 hPa ESE 15 km/h 15 km/h 52 % 0 mm 178.0 W/m2 CLR
18:12 -4 °C -9.8 °C 34428.8 hPa East 15 km/h 15 km/h 52 % 0 mm 162.0 W/m2 CLR
18:17 -4 °C -9.8 °C 34428.8 hPa ESE 17.9 km/h 17.9 km/h 52 % 0 mm 148.0 W/m2 CLR
18:22 -4 °C -10.1 °C 34428.8 hPa ESE 20.9 km/h 20.9 km/h 51 % 0 mm 135.0 W/m2 CLR
18:27 -4 °C -9.8 °C 34428.8 hPa ESE 15 km/h 15 km/h 52 % 0 mm 128.0 W/m2 CLR
18:32 -4 °C -10 °C 34428.8 hPa ESE 11.9 km/h 11.9 km/h 51 % 0 mm 118.0 W/m2 CLR
18:37 -4.1 °C -9.9 °C 34428.8 hPa Calm     52 % 0 mm 109.0 W/m2 CLR
18:42 -4.1 °C -9.9 °C 34428.8 hPa ESE 15 km/h 15 km/h 52 % 0 mm 100.0 W/m2 CLR
18:47 -4.1 °C -9.9 °C 34428.8 hPa East 11.9 km/h 11.9 km/h 52 % 0 mm 114.0 W/m2 CLR
18:52 -4.2 °C -9.9 °C 34428.8 hPa ESE 20.9 km/h 20.9 km/h 53 % 0 mm 118.0 W/m2 CLR
18:57 -4.3 °C -9.9 °C 34418.7 hPa ESE 20.9 km/h 20.9 km/h 53 % 0 mm 113.0 W/m2 CLR
19:02 -4.3 °C -9.9 °C 34418.7 hPa ESE 17.9 km/h 17.9 km/h 53 % 0 mm 107.0 W/m2 CLR
19:07 -4.2 °C -9.9 °C 34418.7 hPa ESE 11.9 km/h 11.9 km/h 53 % 0 mm 95.0 W/m2 CLR
19:12 -4.1 °C -10.1 °C 34418.7 hPa East 11.9 km/h 11.9 km/h 51 % 0 mm 74.0 W/m2 CLR
19:17 -4 °C -10.3 °C 34418.7 hPa ESE 15 km/h 15 km/h 49 % 0 mm 63.0 W/m2 FEW
19:22 -3.9 °C -10.1 °C 34405.1 hPa SE 15 km/h 15 km/h 50 % 0 mm 58.0 W/m2 SCT
19:27 -3.9 °C -10.5 °C 34405.1 hPa SE 17.9 km/h 17.9 km/h 48 % 0 mm 47.0 W/m2 SCT
19:32 -3.8 °C -10.7 °C 34405.1 hPa SE 17.9 km/h 17.9 km/h 46 % 0 mm 40.0 W/m2 SCT
19:37 -3.8 °C -10.6 °C 34395 hPa SE 23.8 km/h 23.8 km/h 47 % 0 mm 39.0 W/m2 BKN
19:42 -3.9 °C -10.6 °C 34395 hPa ESE 20.9 km/h 20.9 km/h 47 % 0 mm 60.0 W/m2 BKN
19:47 -4.1 °C -10.4 °C 34395 hPa ESE 15 km/h 15 km/h 49 % 0 mm 63.0 W/m2 SCT
19:52 -4.3 °C -10.4 °C 34395 hPa East 15 km/h 15 km/h 50 % 0 mm 56.0 W/m2 SCT
19:57 -4.5 °C -10.5 °C 34395 hPa SE 23.8 km/h 23.8 km/h 51 % 0 mm 47.0 W/m2 SCT
20:02 -4.7 °C -10.5 °C 34384.8 hPa SE 23.8 km/h 23.8 km/h 52 % 0 mm 40.0 W/m2 SCT
20:07 -4.8 °C -10.4 °C 34395 hPa ENE 11.9 km/h 11.9 km/h 53 % 0 mm 40.0 W/m2 BKN
20:12 -4.9 °C -10.6 °C 34395 hPa ESE 17.9 km/h 17.9 km/h 53 % 0 mm 51.0 W/m2 BKN
20:17 -5.1 °C -10.5 °C 34405.1 hPa Calm     54 % 0 mm 51.0 W/m2 SCT
20:18 -5.1 °C -10.5 °C 34405.1 hPa Calm     54 % 0 mm 51.0 W/m2 SCT
20:23 -5.1 °C -10.5 °C 34405.1 hPa Calm     54 % 0 mm 47.0 W/m2 SCT
20:28 -5.1 °C -10.4 °C 34405.1 hPa NE 9 km/h   55 % 0 mm 39.0 W/m2 BKN
20:33 -5.2 °C -10.5 °C 34405.1 hPa Calm     55 % 0 mm 33.0 W/m2 BKN
20:38 -5.4 °C -10.5 °C 34405.1 hPa East 10.3 km/h 10.3 km/h 56 % 0 mm 40.0 W/m2 BKN
20:43 -5.5 °C -10.6 °C 34405.1 hPa ENE 3.1 km/h   56 % 0 mm 33.0 W/m2 BKN
20:48 -5.5 °C -10.4 °C 34405.1 hPa Calm     57 % 0 mm 25.0 W/m2 BKN
20:50 -5.6 °C -10.5 °C 34405.1 hPa Calm     57 % 0 mm 23.0 W/m2 BKN
20:55 -5.7 °C -10.4 °C 34405.1 hPa Calm     58 % 0 mm 16.0 W/m2 BKN
21:00 -5.7 °C -10.5 °C 34405.1 hPa Calm     58 % 0 mm 11.0 W/m2 BKN
21:05 -5.9 °C -10.7 °C 34405.1 hPa ESE 3.1 km/h   58 % 0 mm 5.0 W/m2 BKN
21:10 -6 °C -10.6 °C 34405.1 hPa East 9 km/h 9 km/h 59 % 0 mm 0.0 W/m2 OVC
21:15 -6.1 °C -10.7 °C 34405.1 hPa East 9 km/h 9 km/h 59 % 0 mm 0.0 W/m2 OVC
21:20 -6.2 °C -10.7 °C 34405.1 hPa ESE 9 km/h 9 km/h 60 % 0 mm 0.0 W/m2 OVC
21:25 -6.2 °C -10.7 °C 34405.1 hPa ESE 9 km/h 9 km/h 60 % 0 mm 0.0 W/m2 OVC
21:30 -6.3 °C -10.7 °C 34395 hPa Calm     60 % 0 mm 0.0 W/m2 CLR
21:35 -6.3 °C -10.8 °C 34395 hPa East 15 km/h 15 km/h 60 % 0 mm 0.0 W/m2 CLR
21:40 -6.4 °C -10.7 °C 34395 hPa Calm     61 % 0 mm 0.0 W/m2 CLR
21:45 -6.4 °C -10.8 °C 34395 hPa ESE 9 km/h 9 km/h 61 % 0 mm 0.0 W/m2 CLR
21:50 -6.4 °C -10.9 °C 34395 hPa Calm     60 % 0 mm 0.0 W/m2 CLR
21:55 -6.4 °C -10.9 °C 34395 hPa Calm     60 % 0 mm 0.0 W/m2 CLR
21:56 -6.4 °C -10.9 °C 34395 hPa Calm     60 % 0 mm 0.0 W/m2 CLR
22:01 -6.4 °C -10.9 °C 34405.1 hPa Calm     60 % 0 mm 0.0 W/m2 CLR
22:06 -6.4 °C -10.9 °C 34405.1 hPa Calm     60 % 0 mm 0.0 W/m2 CLR
22:11 -6.4 °C -10.9 °C 34405.1 hPa Calm     60 % 0 mm 0.0 W/m2 CLR
22:16 -6.3 °C -10.9 °C 34405.1 hPa SSW 11.9 km/h 11.9 km/h 59 % 0 mm 0.0 W/m2 CLR
22:21 -6.3 °C -10.9 °C 34405.1 hPa Calm     59 % 0 mm 0.0 W/m2 CLR
22:26 -6.3 °C -10.9 °C 34405.1 hPa Calm     59 % 0 mm 0.0 W/m2 CLR
22:31 -6.4 °C -11 °C 34418.7 hPa Calm     59 % 0 mm 0.0 W/m2 CLR
22:36 -6.4 °C -11 °C 34405.1 hPa Calm     59 % 0 mm 0.0 W/m2 CLR
22:41 -6.5 °C -10.9 °C 34405.1 hPa ENE 6 km/h 6 km/h 60 % 0 mm 0.0 W/m2 CLR
22:46 -6.6 °C -11.1 °C 34405.1 hPa Calm     60 % 0 mm 0.0 W/m2 CLR
22:51 -6.8 °C -11.1 °C 34395 hPa Calm     61 % 0 mm 0.0 W/m2 CLR
22:56 -6.8 °C -11.1 °C 34395 hPa Calm     61 % 0 mm 0.0 W/m2 CLR
23:01 -6.8 °C -11 °C 34395 hPa Calm     62 % 0 mm 0.0 W/m2 CLR
23:06 -6.9 °C -11.1 °C 34395 hPa Calm     62 % 0 mm 0.0 W/m2 CLR
23:11 -7 °C -11.2 °C 34395 hPa Calm     62 % 0 mm 0.0 W/m2 CLR
23:16 -7.1 °C -11.1 °C 34395 hPa East 11.9 km/h 11.9 km/h 63 % 0 mm 0.0 W/m2 CLR
23:21 -7.1 °C -11.2 °C 34395 hPa Calm     63 % 0 mm 0.0 W/m2 CLR
23:26 -7.2 °C -11.1 °C 34395 hPa Calm     64 % 0 mm 0.0 W/m2 CLR
23:31 -7.3 °C -11.2 °C 34395 hPa Calm     64 % 0 mm 0.0 W/m2 CLR
23:36 -7.3 °C -11.2 °C 34395 hPa Calm     64 % 0 mm 0.0 W/m2 CLR
23:41 -7.3 °C -11.1 °C 34395 hPa East 3.1 km/h 3.1 km/h 65 % 0 mm 0.0 W/m2 CLR
23:46 -7.4 °C -11.2 °C 34395 hPa Calm     65 % 0 mm 0.0 W/m2 CLR
23:51 -7.4 °C -11.2 °C 34395 hPa Calm     65 % 0 mm 0.0 W/m2 CLR
23:56 -7.5 °C -11.2 °C 34384.8 hPa Calm     65 % 0 mm 0.0 W/m2 CLR
Lo Temps de Massalio
Compliments of Weather Underground - 1.25 mb